Hourly Data Report for May 10, 2012

All times are specified in Local Standard Time (LST). Add 1 hour to adjust for Daylight Saving Time where and when it is observed.

OTTAWA INTL A
ONTARIO

45°19'00.000" N
75°40'00.000" W
114.90 m
6106001
71628
YOW

Download Data

Hourly Data (May 2012)
Hourly Data Report for May 10, 2012
Temp Definition
°C
Dew Point Temp Definition
°C
Rel Hum Definition
%
Wind Dir Definition
10's deg

Wind Spd Definition
km/h
Visibility Definition
km
Stn Press Definition
kPa
Hmdx Definition


Wind Chill Definition


Weather Definition


TIME
00:00 Legend Double Dagger 9.0 6.6 85 30 30 10.0 98.91     LegendNANA
01:00 Legend Double Dagger 8.1 5.1 81 30 23 10.0 98.90     Cloudy
02:00 Legend Double Dagger 6.9 4.1 82 29 23 10.0 98.85     LegendNANA
03:00 Legend Double Dagger 6.0 3.3 83 31 29 10.0 98.84     LegendNANA
04:00 Legend Double Dagger 5.5 2.9 83 30 19 10.0 98.79     Cloudy
05:00 Legend Double Dagger 5.7 3.2 84 30 23 10.0 98.78     LegendNANA
06:00 Legend Double Dagger 6.0 3.5 84 30 20 10.0 98.81     LegendNANA
07:00 Legend Double Dagger 6.5 4.0 84 30 15 10.0 98.81     Cloudy
08:00 Legend Double Dagger 6.9 4.2 83 31 18 10.0 98.82     LegendNANA
09:00 Legend Double Dagger 7.2 4.0 80 31 21 10.0 98.81     LegendNANA
10:00 Legend Double Dagger 7.6 4.0 78 31 21 10.0 98.84     Cloudy
11:00 Legend Double Dagger 7.7 5.2 84 30 17 10.0 98.84     Rain
12:00 Legend Double Dagger 8.2 4.8 79 30 25 10.0 98.83     Rain
13:00 Legend Double Dagger 8.6 4.4 75 31 30 10.0 98.85     Rain
14:00 Legend Double Dagger 8.6 4.8 77 30 26 10.0 98.89     Rain
15:00 Legend Double Dagger 8.0 5.8 86 31 28 10.0 98.93     Rain
16:00 Legend Double Dagger 8.5 5.1 79 31 33 10.0 98.98     Rain
17:00 Legend Double Dagger 9.0 3.6 69 32 39 10.0 99.06     LegendNANA
18:00 Legend Double Dagger 9.1 3.9 70 31 28 10.0 99.13     LegendNANA
19:00 Legend Double Dagger 8.6 3.3 69 30 25 10.0 99.19     Mostly Cloudy
20:00 Legend Double Dagger 8.4 2.7 67 31 22 10.0 99.27     LegendNANA
21:00 Legend Double Dagger 8.9 2.0 62 32 23 10.0 99.32     LegendNANA
22:00 Legend Double Dagger 8.9 1.6 60 30 17 10.0 99.35     Cloudy
23:00 Legend Double Dagger 7.8 1.7 65 27 15 10.0 99.39     LegendNANA

Notes on Data Quality.

Legend

  • E = Estimated
  • M = Missing
  • NA = Not Available
  • ‡ = Partner data that is not subject to review by the National Climate Archives
Date modified: